Temp
-12 -12 -12 -12 -13 -13 -13 -13 -13 -13 -13 -13 -13 -13 -13 -13 -13 -14 -14 -14 -13 -13 -13 -13 -13 -13 -13 -12 -12 -12 -10 -9 -10 -11 -11 -10 -9 -9 -9 -10 -9 -8 -8 -8 -9
-13 -13 -13 -12 -12 -13 -13 -13 -13 -13 -13 -13 -13 -13 -13 -14 -14 -14 -13 -13 -13 -12 -12 -12 -13 -13 -12 -12 -12 -12 -10 -9 -11 -12 -11 -10 -9 -9 -9 -10 -10 -9 -9 -8 -8
-13 -13 -13 -13 -13 -13 -13 -13 -13 -13 -14 -14 -14 -13 -14 -14 -14 -14 -14 -14 -13 -12 -12 -12 -13 -12 -12 -13 -12 -11 -10 -10 -11 -12 -12 -11 -11 -10 -9 -9 -10 -10 -9 -8 -9
-13 -13 -13 -13 -13 -13 -13 -13 -13 -13 -14 -14 -14 -14 -14 -14 -14 -14 -14 -14 -13 -13 -12 -12 -12 -12 -12 -12 -12 -11 -11 -12 -11 -12 -12 -12 -12 -11 -10 -9 -10 -10 -9 -8 -8
-14 -13 -13 -13 -13 -13 -13 -14 -14 -14 -14 -14 -14 -14 -14 -14 -14 -14 -14 -14 -14 -13 -13 -13 -12 -12 -12 -11 -11 -11 -11 -11 -12 -12 -11 -12 -12 -12 -10 -9 -11 -10 -10 -10 -9
-14 -14 -13 -13 -13 -13 -13 -13 -14 -14 -14 -14 -14 -15 -15 -14 -14 -14 -14 -14 -14 -14 -13 -13 -13 -13 -13 -13 -13 -12 -12 -12 -12 -12 -12 -12 -12 -12 -9 -10 -11 -12 -11 -11 -10
-15 -14 -14 -13 -13 -13 -13 -13 -13 -14 -14 -14 -14 -15 -15 -15 -14 -14 -14 -14 -14 -14 -13 -13 -13 -13 -13 -13 -12 -12 -12 -13 -13 -13 -12 -13 -11 -10 -11 -12 -10 -12 -12 -11 -11
-15 -15 -14 -14 -13 -13 -13 -13 -13 -13 -13 -14 -14 -14 -14 -15 -15 -14 -14 -14 -14 -14 -13 -13 -13 -13 -13 -13 -13 -13 -13 -13 -13 -13 -12 -12 -9 -11 -11 -12 -11 -10 -12 -12 -11
-15 -15 -14 -14 -14 -13 -13 -13 -13 -13 -13 -13 -14 -14 -14 -15 -15 -14 -14 -14 -14 -14 -14 -14 -13 -13 -13 -13 -13 -13 -13 -12 -12 -13 -12 -12 -10 -11 -11 -11 -11 -10 -11 -11 -12
-14 -15 -15 -14 -14 -13 -13 -13 -13 -13 -13 -13 -14 -14 -14 -15 -14 -14 -15 -14 -14 -14 -14 -14 -14 -14 -13 -13 -13 -13 -12 -12 -12 -12 -12 -12 -10 -10 -11 -11 -11 -11 -11 -11 -11
-14 -14 -15 -15 -14 -14 -14 -14 -14 -14 -14 -14 -14 -14 -14 -14 -15 -15 -15 -15 -15 -14 -14 -14 -14 -14 -14 -14 -14 -13 -13 -13 -13 -13 -12 -12 -11 -11 -11 -11 -11 -10 -11 -11 -11
-14 -14 -14 -14 -15 -14 -14 -14 -14 -14 -14 -14 -14 -14 -14 -14 -15 -15 -15 -15 -15 -15 -15 -14 -14 -14 -14 -14 -14 -13 -13 -13 -13 -13 -12 -12 -11 -11 -11 -11 -11 -11 -11 -11 -11
-13 -14 -14 -14 -14 -14 -14 -14 -14 -14 -14 -14 -14 -14 -15 -15 -15 -15 -15 -15 -15 -15 -15 -15 -15 -15 -14 -14 -14 -14 -14 -13 -13 -13 -13 -12 -10 -11 -11 -11 -11 -11 -11 -11 -11
-13 -13 -13 -14 -14 -15 -15 -15 -15 -15 -15 -14 -15 -15 -15 -15 -16 -16 -15 -15 -15 -15 -15 -15 -15 -15 -15 -14 -15 -15 -15 -14 -14 -13 -13 -13 -11 -11 -11 -11 -12 -11 -11 -11 -11
-13 -13 -13 -13 -14 -14 -15 -15 -15 -15 -15 -15 -16 -16 -15 -15 -15 -15 -15 -16 -16 -16 -16 -16 -16 -16 -16 -16 -16 -16 -15 -15 -15 -14 -13 -13 -13 -9 -12 -12 -12 -13 -12 -12 -11
-13 -13 -13 -13 -14 -14 -14 -14 -15 -15 -15 -16 -16 -16 -16 -16 -16 -16 -16 -16 -16 -16 -16 -17 -17 -17 -17 -16 -16 -16 -15 -15 -15 -15 -14 -16 -15 -10 -11 -12 -12 -12 -12 -12 -12
-13 -13 -13 -13 -13 -14 -14 -14 -15 -15 -15 -15 -16 -16 -16 -16 -16 -16 -16 -16 -16 -16 -17 -18 -18 -18 -18 -18 -18 -18 -18 -17 -16 -16 -15 -16 -16 -12 -12 -14 -13 -12 -12 -12 -12
-13 -13 -13 -14 -14 -14 -14 -14 -15 -15 -15 -16 -16 -16 -16 -17 -17 -17 -17 -17 -17 -18 -18 -18 -19 -20 -20 -19 -18 -19 -19 -19 -18 -18 -18 -17 -16 -14 -15 -16 -17 -14 -13 -13 -12
-14 -14 -14 -14 -14 -14 -14 -14 -15 -15 -16 -16 -16 -16 -17 -17 -17 -18 -18 -18 -18 -18 -19 -19 -19 -20 -20 -19 -19 -19 -19 -19 -19 -20 -20 -19 -19 -19 -19 -19 -20 -19 -16 -15 -14
-14 -14 -14 -14 -14 -15 -15 -15 -15 -15 -16 -16 -16 -16 -17 -17 -17 -18 -19 -19 -19 -19 -20 -20 -19 -20 -20 -19 -19 -19 -19 -19 -20 -20 -21 -20 -20 -20 -20 -20 -20 -20 -20 -19 -18
-14 -14 -15 -15 -15 -15 -15 -15 -15 -15 -16 -16 -16 -16 -17 -17 -18 -18 -19 -20 -20 -20 -20 -20 -20 -20 -20 -20 -19 -20 -19 -20 -20 -21 -21 -20 -19 -20 -20 -20 -20 -20 -19 -19 -19
-14 -14 -14 -15 -15 -15 -15 -16 -16 -16 -16 -16 -16 -16 -17 -17 -18 -18 -19 -20 -20 -21 -20 -20 -20 -19 -20 -20 -20 -20 -20 -20 -20 -21 -21 -21 -19 -19 -20 -20 -20 -20 -20 -19 -19
-13 -13 -14 -15 -15 -16 -16 -16 -16 -16 -16 -16 -17 -17 -18 -18 -18 -18 -19 -20 -20 -21 -21 -20 -20 -20 -20 -20 -20 -20 -20 -20 -21 -21 -20 -21 -19 -20 -20 -20 -20 -20 -20 -19 -19
-13 -13 -14 -14 -15 -15 -16 -16 -16 -17 -17 -17 -17 -17 -18 -18 -19 -19 -19 -20 -21 -21 -21 -21 -20 -20 -20 -20 -20 -20 -21 -21 -21 -21 -20 -20 -19 -20 -20 -20 -20 -20 -20 -19 -19
-13 -13 -14 -14 -14 -15 -16 -16 -17 -17 -18 -18 -18 -18 -18 -18 -19 -20 -20 -20 -21 -22 -21 -21 -20 -21 -21 -21 -20 -20 -21 -21 -21 -21 -20 -20 -20 -20 -20 -20 -20 -20 -20 -19 -19
-14 -14 -14 -14 -15 -15 -16 -16 -17 -17 -17 -18 -18 -18 -19 -19 -20 -20 -20 -21 -21 -22 -22 -21 -21 -21 -20 -21 -20 -20 -21 -21 -21 -21 -21 -20 -20 -20 -20 -20 -20 -20 -20 -19 -19
-14 -14 -14 -15 -15 -15 -16 -16 -17 -17 -18 -18 -18 -18 -19 -19 -20 -20 -21 -21 -21 -21 -22 -21 -21 -21 -20 -21 -20 -20 -21 -20 -21 -21 -21 -20 -20 -20 -20 -20 -20 -20 -20 -19 -19
Height
5745 5744 5743 5743 5743 5742 5742 5742 5742 5742 5742 5743 5743 5742 5741 5740 5739 5739 5740 5742 5743 5747 5751 5756 5762 5766 5770 5774 5778 5781 5785 5789 5797 5803 5809 5809 5815 5819 5826 5833 5834 5833 5833 5839 5841
5741 5740 5739 5738 5738 5738 5737 5737 5736 5737 5737 5737 5737 5737 5737 5735 5734 5734 5735 5735 5739 5742 5745 5749 5753 5758 5763 5767 5769 5772 5776 5784 5792 5794 5793 5801 5809 5813 5821 5827 5829 5831 5833 5833 5837
5738 5737 5735 5735 5734 5733 5733 5732 5731 5732 5732 5732 5732 5732 5732 5731 5731 5730 5731 5731 5733 5735 5739 5742 5746 5751 5756 5759 5762 5766 5771 5777 5782 5784 5786 5794 5801 5803 5810 5820 5822 5824 5826 5827 5831
5736 5734 5733 5732 5730 5729 5728 5728 5727 5727 5727 5727 5727 5728 5728 5728 5728 5727 5728 5728 5729 5730 5733 5737 5740 5743 5748 5751 5755 5758 5763 5767 5772 5774 5778 5784 5790 5795 5801 5817 5814 5817 5818 5821 5823
5733 5732 5730 5729 5728 5726 5725 5724 5723 5722 5722 5722 5722 5723 5724 5724 5723 5724 5725 5725 5727 5727 5729 5731 5734 5737 5741 5744 5748 5751 5755 5757 5763 5766 5770 5774 5779 5783 5793 5807 5803 5809 5810 5814 5816
5730 5729 5728 5727 5725 5724 5723 5721 5720 5719 5718 5718 5718 5719 5719 5719 5720 5721 5721 5722 5723 5725 5725 5727 5729 5732 5735 5737 5741 5744 5748 5751 5755 5759 5761 5766 5772 5775 5790 5794 5793 5798 5805 5808 5811
5728 5727 5726 5726 5724 5723 5721 5719 5718 5716 5715 5714 5713 5713 5714 5716 5716 5715 5717 5719 5719 5720 5721 5724 5725 5727 5729 5732 5733 5735 5737 5740 5745 5749 5752 5754 5760 5767 5778 5778 5783 5789 5794 5799 5803
5726 5726 5725 5724 5723 5722 5720 5718 5716 5715 5713 5711 5709 5709 5709 5710 5711 5710 5711 5714 5715 5714 5716 5718 5720 5722 5724 5727 5727 5729 5729 5732 5736 5738 5744 5746 5758 5760 5761 5764 5770 5775 5780 5785 5791
5723 5723 5723 5722 5722 5721 5719 5717 5714 5713 5711 5709 5707 5706 5706 5706 5705 5706 5707 5708 5710 5711 5711 5712 5714 5716 5718 5720 5722 5721 5722 5725 5729 5730 5736 5740 5746 5750 5750 5753 5757 5763 5770 5773 5780
5721 5721 5721 5720 5719 5718 5717 5715 5712 5711 5709 5706 5704 5704 5702 5702 5699 5701 5703 5703 5704 5705 5706 5707 5708 5709 5711 5713 5714 5714 5715 5717 5720 5723 5726 5733 5737 5740 5742 5743 5748 5751 5754 5762 5767
5722 5720 5719 5718 5717 5716 5715 5713 5712 5710 5707 5704 5703 5700 5698 5697 5697 5698 5698 5697 5697 5698 5700 5701 5703 5704 5704 5705 5707 5708 5709 5709 5711 5713 5716 5722 5728 5730 5732 5735 5737 5741 5745 5748 5756
5723 5720 5718 5716 5715 5714 5713 5711 5709 5707 5704 5702 5700 5698 5696 5695 5694 5694 5694 5693 5693 5693 5694 5695 5695 5696 5696 5697 5698 5698 5699 5701 5701 5702 5702 5705 5713 5718 5718 5723 5726 5730 5734 5736 5741
5725 5721 5718 5715 5714 5713 5711 5709 5707 5704 5702 5700 5697 5696 5694 5692 5691 5691 5690 5689 5689 5688 5688 5688 5688 5687 5688 5689 5689 5690 5690 5691 5691 5691 5693 5692 5700 5705 5707 5709 5713 5714 5718 5721 5725
5726 5723 5720 5717 5715 5711 5709 5706 5704 5702 5700 5698 5696 5693 5691 5690 5689 5688 5685 5685 5683 5683 5682 5681 5680 5680 5679 5680 5681 5681 5680 5680 5681 5679 5682 5684 5682 5692 5695 5695 5696 5697 5700 5704 5710
5728 5724 5720 5717 5714 5711 5708 5705 5703 5701 5698 5697 5693 5689 5687 5686 5685 5684 5683 5680 5679 5677 5679 5675 5674 5673 5672 5671 5670 5670 5670 5670 5669 5667 5669 5670 5665 5687 5683 5681 5679 5683 5680 5684 5692
5731 5726 5721 5717 5713 5709 5706 5703 5700 5699 5695 5693 5690 5687 5684 5682 5681 5678 5677 5676 5674 5671 5669 5669 5666 5666 5665 5663 5662 5660 5658 5656 5656 5655 5658 5652 5649 5673 5668 5666 5662 5661 5665 5668 5673
5734 5728 5722 5718 5713 5708 5704 5701 5699 5695 5692 5690 5686 5682 5680 5676 5673 5670 5669 5667 5666 5664 5663 5662 5660 5658 5655 5653 5652 5651 5648 5645 5644 5643 5644 5640 5634 5658 5649 5642 5641 5642 5648 5652 5656
5735 5729 5723 5718 5713 5708 5704 5701 5696 5693 5688 5685 5681 5677 5675 5672 5668 5664 5660 5658 5657 5656 5654 5654 5653 5650 5648 5645 5645 5645 5642 5638 5631 5629 5627 5629 5623 5633 5632 5623 5623 5624 5625 5634 5640
5734 5730 5724 5717 5712 5707 5703 5699 5694 5690 5686 5682 5678 5674 5669 5665 5662 5659 5654 5651 5648 5647 5648 5644 5645 5645 5642 5640 5638 5637 5633 5630 5624 5622 5615 5616 5614 5612 5617 5614 5610 5610 5611 5613 5616
5732 5726 5722 5716 5710 5705 5701 5697 5692 5687 5683 5678 5674 5670 5665 5661 5656 5652 5648 5644 5640 5639 5639 5638 5634 5638 5636 5634 5632 5629 5626 5623 5617 5612 5609 5610 5604 5605 5607 5606 5604 5604 5603 5601 5602
5729 5724 5719 5714 5709 5703 5699 5694 5688 5684 5679 5674 5669 5664 5660 5655 5651 5646 5642 5639 5633 5631 5631 5629 5627 5632 5629 5627 5626 5623 5620 5617 5614 5608 5602 5599 5599 5600 5600 5599 5598 5598 5595 5594 5595
5725 5720 5715 5710 5706 5700 5694 5690 5685 5680 5675 5669 5664 5658 5653 5648 5644 5639 5634 5630 5627 5625 5623 5622 5620 5622 5623 5620 5620 5618 5614 5611 5607 5604 5597 5594 5591 5594 5592 5591 5590 5591 5588 5586 5586
5721 5716 5711 5706 5701 5696 5689 5684 5679 5675 5670 5665 5659 5653 5648 5643 5636 5633 5626 5623 5618 5617 5616 5614 5614 5615 5617 5617 5614 5613 5609 5605 5601 5596 5592 5590 5585 5586 5586 5585 5582 5581 5578 5577 5575
5717 5711 5706 5701 5695 5691 5686 5680 5673 5667 5663 5658 5653 5647 5641 5635 5628 5624 5619 5615 5611 5609 5607 5605 5607 5608 5610 5609 5607 5608 5603 5598 5593 5587 5586 5582 5579 5580 5576 5575 5574 5571 5568 5568 5563
5714 5707 5700 5695 5688 5683 5679 5674 5668 5662 5656 5649 5646 5638 5633 5627 5622 5616 5610 5606 5604 5601 5599 5599 5601 5601 5602 5601 5599 5599 5596 5593 5588 5586 5579 5579 5572 5574 5569 5566 5563 5561 5559 5559 5555
5710 5704 5697 5690 5683 5677 5671 5666 5661 5657 5649 5644 5637 5631 5624 5618 5612 5608 5603 5599 5596 5594 5592 5592 5594 5594 5596 5594 5593 5592 5589 5586 5584 5580 5575 5572 5569 5565 5563 5560 5556 5553 5550 5550 5543
5704 5700 5694 5684 5676 5671 5665 5659 5654 5647 5644 5635 5628 5622 5617 5610 5603 5598 5594 5592 5589 5586 5586 5585 5586 5587 5589 5586 5585 5585 5583 5581 5578 5573 5570 5568 5565 5562 5558 5553 5549 5546 5541 5542 5541
Wind_Speed
13 14 16 18 22 25 26 27 27 26 25 24 25 23 23 25 27 30 33 33 36 35 39 45 47 44 47 50 54 52 44 33 43 45 34 40 47 56 51 39 46 53 49 45 37
14 14 15 15 17 18 21 24 26 26 26 25 24 23 22 21 22 25 30 30 32 30 34 38 43 44 44 46 52 49 43 35 39 42 51 49 47 50 54 42 42 49 46 44 40
14 14 15 14 15 16 18 19 21 24 26 25 24 22 22 21 20 20 25 28 31 28 31 34 37 43 43 43 44 48 48 43 42 45 52 43 53 43 51 50 40 46 45 44 41
12 12 12 12 12 14 16 17 18 18 20 23 24 22 22 22 22 19 20 21 26 28 30 32 34 38 43 46 46 46 45 47 46 41 43 51 45 53 47 50 48 42 51 51 49
11 11 10 10 10 12 14 15 16 17 18 17 19 21 22 23 23 21 21 21 23 24 26 28 30 34 38 42 45 46 46 47 46 45 49 43 48 51 66 54 49 50 47 50 48
10 10 9 9 9 10 12 14 15 16 18 19 19 18 17 22 23 22 23 23 23 24 24 26 27 29 30 34 37 43 47 45 45 44 45 46 43 51 38 55 50 51 51 48 50
11 9 7 8 8 8 10 10 11 12 15 18 19 21 21 20 20 23 24 25 26 26 26 26 28 29 30 32 36 40 43 43 42 42 43 46 46 45 42 54 59 47 45 50 50
11 9 8 7 8 8 9 11 12 11 11 12 16 18 20 20 22 25 24 24 25 28 29 29 30 32 32 33 34 37 41 42 42 43 44 47 44 42 49 53 57 62 54 49 52
10 8 7 8 9 9 10 12 13 13 13 11 12 13 15 16 21 23 24 25 24 26 28 30 31 34 34 35 36 39 41 42 43 44 44 46 46 46 49 53 58 61 73 60 55
8 8 8 9 9 10 12 13 15 13 12 13 12 11 11 14 20 19 20 23 24 26 28 29 30 32 34 36 38 41 43 45 45 47 46 45 47 48 49 52 53 60 63 75 77
11 9 10 10 11 12 12 13 13 14 13 13 13 13 12 13 16 14 16 20 22 24 26 29 29 31 34 36 37 39 41 44 46 47 48 46 46 49 50 49 52 54 59 62 62
19 11 13 13 13 12 13 13 14 15 15 16 15 16 14 13 14 13 17 20 21 23 23 25 27 30 32 35 36 38 40 42 44 46 50 49 46 47 50 49 53 55 56 59 60
23 20 15 10 11 15 16 16 15 17 18 18 18 14 12 13 12 14 17 18 20 22 23 25 27 29 31 33 35 38 40 42 45 48 49 53 50 50 50 52 53 56 57 59 61
23 22 20 17 13 14 18 19 19 20 23 21 18 14 16 18 18 16 19 20 22 23 24 25 27 29 31 32 33 35 38 40 43 47 47 50 56 53 56 57 58 59 61 61 63
28 25 22 20 17 16 16 15 17 16 19 18 14 16 19 20 21 20 20 23 24 26 23 25 25 27 27 29 32 35 36 38 42 45 46 49 55 50 52 58 61 60 66 66 65
28 28 27 24 21 18 16 16 17 17 21 15 13 17 21 23 22 22 22 22 24 25 25 19 23 24 26 28 31 30 32 35 39 41 46 46 51 49 51 55 59 65 67 69 70
26 26 26 25 24 22 21 19 18 16 18 19 20 21 22 24 26 28 27 28 27 27 25 20 21 21 21 23 24 26 29 37 41 42 44 45 51 48 55 55 62 65 66 68 70
27 27 25 25 24 23 22 21 19 18 20 22 23 24 24 25 27 29 32 33 31 28 26 19 18 16 19 23 24 22 26 29 39 41 45 41 51 46 49 52 47 60 67 67 69
27 28 27 25 24 23 24 23 22 23 21 22 25 25 26 27 29 29 32 33 34 32 27 24 19 14 19 20 22 22 25 29 33 37 41 40 35 35 30 36 38 44 54 59 63
28 28 28 25 24 25 24 24 23 23 23 25 26 26 25 27 28 27 29 33 35 33 30 25 26 15 16 18 21 22 26 30 33 37 36 31 28 23 24 27 32 30 34 40 46
29 30 28 27 25 25 25 25 25 24 25 26 27 29 29 29 26 25 26 28 32 33 29 28 25 13 15 17 17 23 28 30 32 33 36 35 25 19 24 29 26 22 27 32 33
30 31 30 29 27 26 26 25 26 27 26 28 29 31 32 33 30 27 26 27 27 28 29 28 25 16 15 17 17 19 22 26 30 29 31 30 22 19 20 23 26 25 24 27 35
29 30 29 30 28 28 29 29 29 29 29 30 31 32 32 30 33 28 28 25 29 27 24 23 23 20 15 17 19 20 24 28 29 29 31 34 25 28 27 23 21 25 27 32 32
29 31 31 32 32 30 27 30 30 32 32 33 34 35 35 36 32 32 28 26 27 26 24 24 22 20 17 14 21 16 22 26 29 33 28 29 24 22 28 30 29 23 32 30 21
28 31 32 34 36 37 33 30 31 31 33 36 36 38 38 37 36 31 30 28 26 24 25 23 23 20 18 17 22 16 19 20 23 23 30 26 31 22 21 22 29 30 29 26 24
30 31 32 35 37 36 37 34 33 32 35 37 40 39 40 37 36 30 31 26 23 23 22 20 20 22 19 22 21 12 15 19 19 23 26 28 27 26 25 20 25 31 30 28 27
30 30 32 37 40 39 40 38 35 37 36 40 43 42 40 38 35 32 29 24 21 22 19 20 20 20 15 22 22 17 18 20 21 19 21 22 20 21 24 24 20 24 29 23 9
Wind_Direction
288 281 277 274 271 269 269 269 269 270 271 271 271 274 276 271 265 259 257 249 243 243 246 236 229 225 235 235 236 234 233 240 235 215 198 204 207 207 204 206 214 221 221 226 224
303 294 286 281 279 275 272 269 266 266 268 268 270 269 272 272 264 260 261 247 241 245 249 238 234 229 231 232 235 233 234 233 228 221 215 204 206 212 212 203 209 221 225 227 228
313 304 300 292 286 283 279 274 268 265 264 264 265 265 265 266 263 262 257 245 242 239 244 240 233 231 231 236 238 232 232 226 228 235 230 229 212 211 209 203 214 218 213 217 216
316 312 306 302 299 296 291 283 276 269 266 262 261 260 260 258 256 255 254 248 245 240 240 238 233 229 233 236 237 238 237 233 228 238 246 232 221 209 210 201 214 220 220 221 225
322 316 309 306 307 304 297 291 284 281 272 267 262 258 254 255 254 250 246 244 243 241 240 239 236 233 234 235 233 236 238 239 237 234 233 234 236 230 209 202 212 216 227 226 229
328 328 332 328 325 317 311 303 291 280 275 272 264 260 253 251 252 249 245 241 240 238 239 242 241 239 236 238 238 238 241 243 245 244 244 243 239 237 225 212 209 215 221 230 231
336 328 326 336 340 344 346 334 316 298 280 272 266 261 255 250 252 252 246 241 243 239 234 236 241 242 239 234 232 234 237 240 240 242 241 245 239 231 235 227 217 210 218 227 232
304 324 320 326 334 331 335 336 335 333 315 296 277 264 258 252 246 247 249 245 242 243 241 237 237 239 242 242 241 240 241 242 241 241 240 240 232 237 231 232 229 212 212 224 229
319 282 304 306 312 315 323 327 322 324 325 317 301 279 269 258 251 246 245 246 245 242 244 244 242 243 243 242 243 245 246 245 244 245 241 240 235 234 239 237 235 223 219 218 223
337 291 284 292 299 305 304 315 319 319 319 314 313 302 277 254 253 254 251 249 246 243 243 244 246 247 246 244 244 247 249 251 250 248 246 244 239 237 236 239 236 236 231 225 222
357 336 273 278 286 292 298 301 309 313 314 311 307 305 291 274 267 266 259 252 245 243 240 242 241 243 251 252 252 251 252 253 254 255 255 248 245 247 243 240 239 238 240 239 236
10 351 341 274 286 300 301 305 312 311 314 311 305 301 285 280 271 270 263 259 259 257 254 250 246 242 243 246 248 249 251 253 256 258 259 257 249 245 247 244 245 243 240 239 240
14 12 3 342 301 297 299 301 306 315 316 315 311 306 281 280 280 267 262 262 261 259 259 257 256 255 252 250 251 253 254 255 256 255 258 259 251 251 251 250 245 245 243 242 240
22 19 10 0 341 315 298 296 304 309 310 308 308 292 280 287 283 278 276 275 273 270 267 264 262 261 262 261 261 259 260 260 259 261 259 258 257 252 255 252 252 249 247 243 240
22 19 15 13 1 344 334 323 315 316 319 322 319 300 293 293 295 289 287 285 282 279 271 274 272 268 266 265 265 265 263 263 266 268 269 267 264 248 251 253 254 250 249 249 244
13 14 12 11 6 3 351 340 334 332 327 322 309 302 301 304 300 293 297 290 291 288 283 280 278 272 269 266 268 275 280 280 274 273 266 270 269 260 260 257 252 249 249 248 248
1 2 4 4 3 358 354 348 341 336 327 323 319 313 312 308 305 304 301 298 293 290 290 298 284 276 279 281 292 299 305 299 293 291 285 282 276 268 265 260 256 253 248 247 248
357 356 354 354 355 355 352 349 347 342 334 327 323 318 314 307 306 305 302 299 294 289 287 290 277 273 282 290 298 299 302 304 305 304 297 288 282 273 261 261 260 254 253 249 246
352 352 351 344 346 346 347 345 344 341 338 331 327 326 318 313 308 304 300 294 291 289 291 288 260 251 271 282 294 306 306 304 305 302 296 295 286 267 249 257 267 262 255 254 250
342 346 347 347 341 341 339 338 338 338 336 332 332 329 323 318 310 306 295 294 290 288 290 282 271 246 248 280 287 300 305 308 303 296 291 293 276 272 260 257 274 275 277 271 261
339 338 339 340 339 336 332 332 333 334 332 331 329 328 327 323 318 308 300 283 284 285 289 286 267 254 256 280 297 300 303 300 299 292 290 291 272 280 268 283 281 291 286 281 272
336 335 335 333 332 329 327 327 326 328 330 328 328 327 325 323 322 314 304 290 280 277 280 286 265 255 258 275 290 310 307 296 293 289 281 278 287 284 296 292 283 282 297 291 278
333 334 335 331 327 326 322 320 320 321 323 323 325 325 324 322 319 317 307 291 282 278 276 273 253 258 256 266 280 300 297 297 288 284 281 281 297 288 279 295 291 276 293 289 293
327 329 332 333 331 326 318 313 315 317 320 321 321 319 322 320 318 318 309 297 289 279 266 264 249 263 264 258 273 289 291 293 283 282 293 290 296 304 291 282 274 282 283 290 287
323 326 329 331 330 330 327 317 313 314 316 317 319 316 319 317 314 312 304 299 288 270 264 267 245 250 256 280 282 296 296 293 284 291 289 296 292 301 302 272 265 270 278 292 297
319 323 326 328 328 327 326 321 317 316 315 315 315 315 317 315 312 313 302 298 291 271 271 274 250 251 262 266 270 282 299 306 303 293 284 296 299 295 298 299 275 269 279 287 291
312 319 321 321 323 327 325 323 319 316 316 315 315 317 315 314 311 304 303 299 295 276 265 272 258 259 257 254 262 265 303 308 306 306 301 300 305 315 317 317 294 279 275 280 298